TimeCDT,TemperatureF,Dew PointF,Humidity,Sea Level PressureIn,VisibilityMPH,Wind Direction,Wind SpeedMPH,Gust SpeedMPH,PrecipitationIn,Events,Conditions,WindDirDegrees,DateUTC
12:54 AM,66.0,53.1,63,29.83,10.0,SE,15.0,-,N/A,,Overcast,130,2013-06-09 05:54:00
1:54 AM,66.0,54.0,65,29.81,10.0,ESE,15.0,23.0,N/A,,Overcast,120,2013-06-09 06:54:00
2:54 AM,66.0,54.0,65,29.79,10.0,ESE,15.0,23.0,N/A,,Overcast,120,2013-06-09 07:54:00
3:54 AM,64.9,54.0,68,29.78,10.0,SE,13.8,21.9,0.00,,Overcast,130,2013-06-09 08:54:00
4:54 AM,64.9,54.0,68,29.78,10.0,SE,10.4,-,0.00,,Overcast,130,2013-06-09 09:54:00
5:54 AM,64.0,54.0,70,29.78,10.0,SE,9.2,-,N/A,,Overcast,140,2013-06-09 10:54:00
6:54 AM,63.0,55.0,75,29.78,10.0,SE,8.1,-,N/A,,Mostly Cloudy,130,2013-06-09 11:54:00
7:54 AM,64.9,55.9,73,29.77,10.0,SE,11.5,-,N/A,,Overcast,130,2013-06-09 12:54:00
8:18 AM,64.4,55.4,73,29.77,10.0,SE,11.5,-,N/A,,Overcast,140,2013-06-09 13:18:00
8:35 AM,64.4,55.4,73,29.78,10.0,SE,11.5,-,N/A,,Overcast,140,2013-06-09 13:35:00
8:54 AM,64.9,57.0,75,29.77,10.0,SSE,9.2,-,0.00,Rain,Light Rain,150,2013-06-09 13:54:00
9:03 AM,64.4,57.2,77,29.78,10.0,SSE,11.5,-,0.00,Rain,Light Rain,160,2013-06-09 14:03:00
9:19 AM,64.4,59.0,83,29.78,10.0,SSE,10.4,-,0.00,,Overcast,160,2013-06-09 14:19:00
9:50 AM,64.4,57.2,77,29.78,10.0,SSE,10.4,-,0.00,Rain,Light Rain,150,2013-06-09 14:50:00
9:54 AM,64.9,57.9,78,29.77,10.0,SSE,10.4,-,0.00,Rain,Light Rain,150,2013-06-09 14:54:00
10:51 AM,62.6,60.8,94,29.78,10.0,SSE,9.2,-,0.03,Rain,Light Rain,160,2013-06-09 15:51:00
10:54 AM,63.0,61.0,93,29.78,10.0,SSE,10.4,-,0.03,Rain,Light Rain,150,2013-06-09 15:54:00
11:54 AM,66.9,62.1,84,29.76,10.0,SSE,11.5,-,0.00,,Mostly Cloudy,160,2013-06-09 16:54:00
12:49 PM,71.6,62.6,73,29.76,10.0,SSE,12.7,-,N/A,,Mostly Cloudy,160,2013-06-09 17:49:00
12:54 PM,71.1,62.1,73,29.75,10.0,SE,12.7,-,N/A,,Mostly Cloudy,140,2013-06-09 17:54:00
1:54 PM,73.0,62.1,68,29.74,10.0,SE,15.0,24.2,N/A,,Mostly Cloudy,140,2013-06-09 18:54:00
2:10 PM,71.6,60.8,69,29.74,10.0,SE,13.8,-,N/A,Thunderstorm,Partly Cloudy,140,2013-06-09 19:10:00
2:25 PM,73.4,60.8,65,29.74,10.0,SE,20.7,26.5,N/A,,Scattered Clouds,140,2013-06-09 19:25:00
2:54 PM,71.1,60.1,68,29.73,10.0,SE,17.3,25.3,N/A,,Overcast,140,2013-06-09 19:54:00
3:54 PM,69.1,61.0,75,29.72,10.0,SE,12.7,21.9,0.01,,Mostly Cloudy,140,2013-06-09 20:54:00
4:54 PM,72.0,61.0,68,29.70,10.0,SE,17.3,24.2,N/A,,Partly Cloudy,140,2013-06-09 21:54:00
5:15 PM,71.6,60.8,69,29.72,10.0,SE,16.1,23.0,N/A,,Mostly Cloudy,130,2013-06-09 22:15:00
5:32 PM,69.8,60.8,73,29.72,10.0,SE,17.3,23.0,N/A,,Overcast,130,2013-06-09 22:32:00
5:54 PM,72.0,61.0,68,29.71,10.0,SE,13.8,-,N/A,,Partly Cloudy,130,2013-06-09 22:54:00
6:03 PM,71.6,60.8,69,29.72,10.0,ESE,15.0,20.7,N/A,Thunderstorm,Partly Cloudy,120,2013-06-09 23:03:00
6:18 PM,69.8,60.8,73,29.72,10.0,SE,13.8,19.6,N/A,,Partly Cloudy,140,2013-06-09 23:18:00
6:54 PM,69.1,60.1,73,29.72,10.0,SE,13.8,28.8,N/A,,Partly Cloudy,130,2013-06-09 23:54:00
7:37 PM,69.8,60.8,73,29.73,10.0,SE,9.2,-,N/A,,Mostly Cloudy,130,2013-06-10 00:37:00
7:45 PM,69.8,60.8,73,29.72,10.0,SE,10.4,-,N/A,,Mostly Cloudy,130,2013-06-10 00:45:00
7:54 PM,68.0,60.1,76,29.71,10.0,SE,11.5,-,N/A,,Mostly Cloudy,130,2013-06-10 00:54:00
8:08 PM,68.0,60.8,78,29.72,10.0,ESE,12.7,-,N/A,,Mostly Cloudy,120,2013-06-10 01:08:00
8:54 PM,66.0,60.1,81,29.73,10.0,ESE,8.1,-,N/A,,Mostly Cloudy,120,2013-06-10 01:54:00
9:05 PM,66.2,60.8,83,29.74,10.0,ESE,10.4,-,N/A,,Overcast,120,2013-06-10 02:05:00
9:17 PM,66.2,60.8,83,29.74,10.0,ESE,10.4,-,N/A,,Overcast,110,2013-06-10 02:17:00
9:54 PM,64.0,60.1,87,29.75,10.0,ESE,9.2,-,N/A,,Scattered Clouds,110,2013-06-10 02:54:00
10:13 PM,64.4,60.8,88,29.77,10.0,ESE,6.9,-,N/A,,Mostly Cloudy,110,2013-06-10 03:13:00
10:33 PM,62.6,60.8,94,29.77,10.0,ESE,8.1,-,N/A,,Scattered Clouds,110,2013-06-10 03:33:00
10:54 PM,63.0,60.1,90,29.77,10.0,ESE,8.1,-,N/A,,Partly Cloudy,110,2013-06-10 03:54:00
11:54 PM,61.0,59.0,93,29.77,10.0,East,3.5,-,N/A,,Clear,90,2013-06-10 04:54:00